Location: Killam
(52.7910°N, 111.8608°W)
Time: 20:44:39
(UTC+00:00)

Vanguard 2 Rocket - Pass Details

Date: 24 February 2026
Orbit: 553 x 3286 km, 32.9° (Epoch: 8 March)

Event Time Altitude Azimuth Distance (km) Brightness Sun altitude
Rises 19:47:19 0° 244° (WSW) 7,199 11.8 28.0°
Reaches altitude 10° 19:52:41 10° 238° (WSW) 6,231 11.7 27.9°
Maximum altitude 20:09:30 37° 181° (S) 3,986 12.5 27.7°
Drops below altitude 10° 20:22:29 10° 121° (ESE) 4,850 10.9 27.3°
Sets 20:26:02 0° 113° (ESE) 5,509 11.0 27.2°
